Treasure Island

Jonathan Swift

(30 November 1667 – 19 October 1745 / Dublin)

Stats

» Click to list general statistics » OR, select a date :

General Statistics

Visitors of the poet

Number of visitors of the poet’s mainpage in PoemHunter.Com

Attention : Numbers in this table does not indicate the total hits of poems of the poet, but indicates the hits of the poet’s main page.

Date Hits
09/22/2014 Monday 152
40%
09/21/2014 Sunday 106
28%
09/20/2014 Saturday 96
25%
09/19/2014 Friday 148
39%
09/18/2014 Thursday 183
48%
09/17/2014 Wednesday 163
43%
09/16/2014 Tuesday 349
93%
09/15/2014 Monday 354
94%
09/14/2014 Sunday 366
97%
09/13/2014 Saturday 367
98%
09/12/2014 Friday 374
100%
09/11/2014 Thursday 334
89%
09/10/2014 Wednesday 212
56%
09/09/2014 Tuesday 158
42%
09/08/2014 Monday 164
43%
09/07/2014 Sunday 183
48%
09/06/2014 Saturday 211
56%
09/05/2014 Friday 295
78%
09/04/2014 Thursday 210
56%
09/03/2014 Wednesday 179
47%

Reader rating & num.of MyPoemList’s

Click the captions of columns to change the order.

# Poem Title Submit Date Reader Rating Num.of MyPoemList’s
Rating Num.R.
1 A Maypole 01/03/2003 5.6 101 11
2 A Beautiful Young Nymph Going To Bed 01/13/2003 6.2 94 62
3 A New Year’s Gift For Bec 04/12/2010 5.3 86 0
4 Elegy On Partridge 04/12/2010 5.9 84 0
5 A Description of the Morning 01/03/2003 5.6 82 21
6 Baucis And Philemon 04/12/2010 5.3 81 0
7 Death And Daphne 04/12/2010 5.3 80 0
8 A Riddle 04/12/2010 5.4 78 2
9 Ballad 04/12/2010 5.0 77 0
10 On The Gallows 04/12/2010 5.6 77 0
11 A Satirical Elegy on the Death of a Late Famous General 01/03/2003 5.6 76 16
12 A Description of a City Shower 01/03/2003 5.4 74 20
13 An Echo 04/12/2010 4.8 74 2
14 An Excellent New Song Being The Intended Speech Of A Famous Orator Against Peace 04/12/2010 5.5 74 0
15 Dean Swift At Sir Arthur Acheson’s In The North Of Ireland 04/12/2010 5.2 74 0
16 The Windsor Prophecy 04/12/2010 5.6 74 0
17 Dingley And Brent 04/12/2010 5.3 73 0
18 Advice to the Grub Street Verse-writers 01/01/2004 5.0 73 7
19 A Panegyric Of The Dean In The Person Of A Lady In The North 04/12/2010 5.2 72 0
20 To Quilca, A Country-House in no very good Repair 04/12/2010 5.4 72 0
21 Twelve Articles 04/12/2010 4.6 71 0
22 To Stella Visiting Me in My Sickness 04/12/2010 5.3 67 0
23 A Receipt To Restore Stella’s Youth. 1724-5 04/12/2010 5.0 67 0
24 Corinna 04/12/2010 5.5 67 0
25 Bec’s Birth-Day Nov. 8, 1726 04/12/2010 5.4 66 0
26 Cadenus And Vanessa 04/12/2010 5.0 66 1
27 Atlas; Or The Minister Of State 04/12/2010 5.7 65 1
28 To Lady Carteret 04/12/2010 5.4 65 0
29 Answered Extempore By Dr. Swift 04/12/2010 5.8 63 0
30 Phillis, Or, the Progress of Love 01/03/2003 5.9 62 13
31 The Revolution At Market-Hill 04/12/2010 5.5 62 0
32 Stella’s Birth-Day.1719-20 04/12/2010 5.8 62 0
33 Toland’s Invitation To Dismal To Dine With The Calve’s Head Club 04/12/2010 5.7 62 0
34 Daphne 04/12/2010 5.7 59 0
35 On The Five Senses 04/12/2010 5.3 59 0
36 Parody On The Recorder’s Speech To His Grace The Duke Of Ormond, 4th July, 1711 04/12/2010 5.6 58 0
37 The Sick Lion and the Ass 04/12/2010 5.3 58 1
38 To Stella, Who Collected and Transcribed His Poems 04/12/2010 5.4 58 0
39 The Famous Speech-Maker Of England Or Baron (Alias Barren) Lovel’s Charge At The Assizes At Exon, April 5, 1710 04/12/2010 5.5 57 0
40 Stella's Birthday March 13, 1727 01/01/2004 5.7 57 10
41 The Virtues Of Sid Hamet The Magician’s Rod 04/12/2010 5.4 56 0
42 Stella’s Birth-Day. 1724-5 04/12/2010 4.8 56 0
43 Stella's Birthday, March 13, 1726 04/12/2010 5.5 55 0
44 The Place of the Damned 01/03/2003 5.9 55 13
45 To Stella On Her Birth-Day, 1721-2 04/12/2010 5.5 54 0
46 The Gulf of All Human Possessions 04/12/2010 5.5 53 0
47 The Dean’s Answer 04/12/2010 5.1 53 0
48 Market Women’s Cries 04/12/2010 5.0 52 0
49 On The World 04/12/2010 5.5 51 0
50 On Time 04/12/2010 5.3 51 0
51 Oysters 04/12/2010 5.4 51 0
52 On Himself 04/12/2010 5.6 50 0
53 Verses on the Death of Dr. Swift, D.S.P.D. 04/12/2010 5.1 49 0
54 On Ink 04/12/2010 5.6 48 0
55 On The Vowels 04/12/2010 5.7 48 0
56 On The Posteriors 04/12/2010 5.4 47 0
57 Stella's Birthday March 13, 1727 04/12/2010 5.7 47 0
58 The Garden Plot 04/12/2010 5.6 47 0
59 On Stephen Duck, the Thresher, and Favourite Poet. A Quibbl 04/12/2010 5.4 45 0
60 Stella's Birthday March 13, 1719 01/01/2004 5.5 45 8
61 On Stella's Birth-Day, 1719 01/03/2003 5.5 44 14
62 Elegy Upon Tiger 01/03/2003 5.7 43 14
63 A Satirical Elegy 01/13/2003 5.9 43 16
64 Lady Acheson Weary Of The Dean 04/12/2010 5.3 43 0
65 The Progress Of Marriage 04/12/2010 5.4 43 0
66 To Stella, Written On The Day Of Her Birth. March 13, 1723-4, But Not On The Subject, When I Was Sick In Bed 04/12/2010 5.6 43 0
67 Stella’s Birth-Day: A Great Bottle Of Wine, Long Buried, Being That Day Dug Up. 1722-3 04/12/2010 5.3 43 0
68 The Fagot 04/12/2010 5.5 42 0
69 Mutton 04/12/2010 5.1 42 0
70 To Stella, Who Collected and Transcribed His Poems 01/03/2003 5.8 42 13
71 The Progress of Poetry 01/03/2003 5.7 42 13
72 Verses on the Death of Doctor Swift 01/03/2003 5.9 42 16
73 The Grand Question Debated: Whether Hamilton’s Bawn Should Be Turned Into A Barrack Or Malt-House 04/12/2010 5.5 41 0
74 The Beasts' Confession 04/12/2010 5.5 40 0
75 The Dean’s Reasons For Not Building At Drapier’s-Hill 04/12/2010 5.5 40 0
76 Sid Hamet’s Rod 04/12/2010 5.5 40 0
77 Riddles By Dr. Swift And His Friends 04/12/2010 5.5 39 0
78 Horace, Epist. I, VII Imitation Of Horace To Lord Oxford 04/12/2010 5.5 39 0
79 On The Moon 04/12/2010 5.5 39 1
80 On A Very Old Glass At Market-Hill 04/12/2010 5.4 39 0
81 Peace And Dunkirk 04/12/2010 5.2 38 0
82 On A Horn 04/12/2010 5.0 37 0
83 On Snow 04/12/2010 5.5 37 0
84 My Lady’s Lamantation And Complaint Against The Dean 04/12/2010 5.0 37 0
85 On A Candle 04/12/2010 5.1 37 0
86 Mr. William Crowe’s Address To Her Majesty, Turned Into Metre 04/12/2010 5.4 36 0
87 On Gold 04/12/2010 5.2 36 0
88 Robin And Harry 04/12/2010 5.5 35 0
89 Stella At Wood Park, A House Of Charles Ford, Esq., Near Dublin 04/12/2010 5.5 35 0
90 The Progress of Poetry 04/12/2010 5.3 35 0
91 The Lady's Dressing Room 04/12/2010 5.2 34 1
92 On A Pair Of Dice 04/12/2010 5.3 34 0
93 On A Pen 04/12/2010 5.3 34 0
94 Mrs Frances Haris's Petition 04/12/2010 5.3 34 0
95 On A Cannon 04/12/2010 5.6 34 0
96 Lines Written Extempore On Mr. Harley’s Being Stabbed, And Addressed To His Physician, 1710-11 04/12/2010 5.4 33 0
97 Fontinella To Florinda 04/12/2010 5.5 33 0
98 On A Corkscrew 04/12/2010 5.6 33 0
99 On An Ill-Managed House 04/12/2010 5.2 33 0
100 Jack Frenchman’s Lamentation 04/12/2010 5.5 32 0
101 Louisa To Strephon 04/12/2010 5.7 32 0
102 The Author Upon Himself 04/12/2010 5.5 31 0
103 A Pastoral Dialogue 04/12/2010 5.5 30 0
104 Phillis, Or, the Progress of Love 04/12/2010 5.4 29 0
105 Oysters 01/03/2003 6.0 27 11
106 On A Circle 04/12/2010 5.2 24 1
107 On A Shadow In A Glass 04/12/2010 5.0 24 0
108 The Beasts' Confession 01/01/2004 5.5 23 8
109 On Cutting Down The Thorn At Market-Hill 04/12/2010 5.8 22 0
110 The Place of the Damned 04/12/2010 5.5 22 0
111 The Fable Of Midas 04/12/2010 5.5 20 0
112 Stella's Birthday March 13, 1719 04/12/2010 5.5 20 0
113 On Stephen Duck, the Thresher, and Favourite Poet. A Quibbl 01/01/2004 5.5 20 7
114 Mrs Frances Haris's Petition 01/03/2003 5.3 13 11
115 Epitaph In Berkeley Church-Yard, Gloucestershire 04/12/2010 5.5 10 0
[Hata Bildir]